INDEX

Satellite information

Favourite Embed

Satellite Type and Status

PAYLOADIN ORBIT

Key statistics

Satellite INDEX at a glance.

Uptime

7320

Days in orbit

Revolutions

≈ 15.1

Per day

Orbit

SSO

Sun Synchronous Orbit

Inclination

98.0

Latest

Satellite identification and parameters

Extended collection of information and parameters for INDEX.

Object identification

Identified? True

Debris? False

Object name: INDEX

International designator: 2005-031B

Object number (NORAD): 28810

Object ID (CCSDS): 28810

Country: JAPAN (JPN)

Current information (Y/N): Y

RCS size: MEDIUM

Orbital parameters

Period: 95.579 minutes

Inclination: 97.992 deg

SMA: 6924.69 km

Apoapsis: 561.348 km

Periapsis: 531.762 km

RAAN: 355.8315 deg

Eccentricy: 0.00213627

Argument of periapsis: 356.8125 deg

Mean anomaly: 3.2961 deg

Mean motion: 15.06614979 rev/day

Mean motion (dot): 0.00007946 rev/day2

B* drag term: 0.00053785491 1/REarth

Two-line elements (TLE)

Creation date: Sept. 6, 2025, 2:09 a.m.

Reference frame: TEME

Reference center: EARTH

Epoch: Sept. 5, 2025, 8:35 p.m. UTC

TLE line 0: 0 INDEX

TLE line 1: 1 28810U 05031B 25248.85810035 .00007946 00000-0 53785-3 0 9996

TLE line 2: 2 28810 97.9920 355.8315 0021363 356.8125 3.2961 15.06614979 88119

Live tracking on map

Real-time ground track for satellite INDEX.

In-orbit conjunctions

There are no conjunctions computed for INDEX, at the moment. Check back to stay up to date, as we update our databases every day.

Go to all conjunctions

Associated space launch

The Optical Inter-orbit Communications Engineering Test Satellite (OICETS), also called Kirari, was an experimental satellite launched by JAXA to demonstrate interorbital communication between satellites through optical (laser) means.

INDEX was lifted into orbit during the mission ‘Dnepr | Kirari’, on board a Dnepr space rocket.

The launch took place on Aug. 23, 2005, 9:09 p.m. from 109/95.

For more information about the launch, click the button.

Launch to space Dnepr | Kirari
Dnepr | Kirari

Agency: N/A

Status: Launch Successful

Launch date: Aug. 23, 2005, 9:09 p.m. UTC

Rocket: Dnepr

Launch pad: 109/95

Location: Baikonur Cosmodrome, Republic of Kazakhstan

...

Latest news about this satellite

There are no fresh news available about this satellite. Check back as we update our databases every day.


Newsletter sign-up

Weekly statistics, charts and insights to help you stay on top of the space industry.